Regional Weather Roundup
Issued by NWS

Home | Current Version | Previous Version | Text Only | Print | Product List | Glossary Off
Versions: 1 2 3 4 5 6 7 8 9 10 11 12 13 14 15 16 17 18 19 20 21 22 23 24 25 26 27 28 29 30 31 32 33 34 35 36 37 38 39 40 41 42 43 44 45 46 47 48 49 50

000
ASUS43 KMKX 052100
RWRWI

WISCONSIN REGIONAL WEATHER ROUNDUP
NATIONAL WEATHER SERVICE MILWAUKEE/SULLIVAN WI
400 PM CDT SUN JUL 05 2015

NOTE: "FAIR" INDICATES FEW OR NO CLOUDS BELOW 12,000 FEET WITH NO
SIGNIFICANT WEATHER AND/OR OBSTRUCTIONS TO VISIBILITY.

WIZ001-002-006>008-014>016-023>028-052200-
NORTHWEST WISCONSIN

CITY           SKY/WX    TMP DP  RH WIND       PRES   REMARKS
SUPERIOR ARPT  PTSUNNY   82  68  61 SW10G18   29.81F HX  85
ASHLAND        MOSUNNY   83  64  52 S10G22    29.86F HX  84
HAYWARD        PTSUNNY   82  63  52 S17       29.90F HX  83
SIREN          PTSUNNY   85  65  51 S15       29.87F HX  86
CUMBERLAND     MOSUNNY   79  63  57 S15G22    29.91F HX  80
RICE LAKE      PTSUNNY   82  64  54 S14G21    29.92F HX  83
CHETEK         MOSUNNY   83  67  58 S12G18    29.92F HX  86
LADYSMITH      MOSUNNY   82  64  53 S12       29.96F HX  83
EAU CLAIRE     NOT AVBL
MENOMONIE      MOSUNNY   81  65  58 S17       29.92F HX  83
NEW RICHMOND   PTSUNNY   83  67  59 S15       29.89F HX  85
OSCEOLA        MOSUNNY   84  68  58 S17       29.90F HX  87
$$

WIZ003>005-009-010-017-018-052200-
NORTH CENTRAL WISCONSIN

CITY           SKY/WX    TMP DP  RH WIND       PRES   REMARKS
MANITOWISH WTR MOSUNNY   78  61  54 SW10      29.95F HX  80
ARBOR VITAE    MOSUNNY   80  61  52 S15       29.96F HX  81
WOODRUFF       MOSUNNY   80  61  52 S15       29.96F HX  81
RHINELANDER    MOSUNNY   82  59  45 SW13      29.99F HX  82
EAGLE RIVER    MOSUNNY   81  55  41 SW9G18    29.97F HX  80
LAND O LAKES   PTSUNNY   79  57  46 SW9       29.97F HX  80
PHILLIPS       MOSUNNY   79  64  58 SW8       29.96S HX  81
TOMAHAWK       SUNNY     80  61  52 S3        29.98F HX  81
MEDFORD        MOSUNNY   80  61  53 S10       29.98F HX  81
MERRILL        SUNNY     81  62  51 SW9       29.99S HX  82
$$

WIZ029-030-035-036-043>047-052200-
CENTRAL WISCONSIN

CITY           SKY/WX    TMP DP  RH WIND       PRES   REMARKS
WAUSAU         SUNNY     83  60  45 S12       29.97S HX  83
MOSINEE        SUNNY     81  61  50 S13G18    29.99F HX  81
MARSHFIELD     MOSUNNY   82  61  48 S14       29.98S HX  83
STEVENS POINT  MOSUNNY   81  60  48 SW14G21   29.99S HX  82
WAUPACA        SUNNY     85  61  44 S9        29.99F HX  85
WAUTOMA        NOT AVBL
WISC RAPIDS    MOSUNNY   84  60  44 SW13G21   29.99S HX  84
CAMP DOUGLAS   SUNNY     83  66  56 S15       29.97F HX  85
$$

WIZ011>013-019>022-031-037>040-048>050-052200-
NORTHEAST WISCONSIN

CITY           SKY/WX    TMP DP  RH WIND       PRES   REMARKS
ANTIGO         SUNNY     78  63  59 S14G20    30.01S HX  80
SHAWANO        SUNNY     84  61  46 S12       29.99S HX  84
OCONTO         SUNNY     82  63  52 S9        29.99F HX  83
STURGEON BAY   SUNNY     75  61  60 S15G22    30.03F
GREEN BAY      SUNNY     83  61  47 SW12      30.00F HX  83
MANITOWOC      NOT AVBL
APPLETON       MOSUNNY   81  57  44 SW14      30.01F HX  81
CLINTONVILLE   SUNNY     82  59  44 S10       29.99F HX  82
OSHKOSH        MOSUNNY   82  63  52 S12       30.00F HX  83
$$

WIZ032>034-041-042-053>061-052200-
SOUTHWEST WISCONSIN

CITY           SKY/WX    TMP DP  RH WIND       PRES   REMARKS
LA CROSSE      MOSUNNY   84  63  49 S16       29.96R HX  85
SPARTA         MOSUNNY   85  59  40 S10       29.98R HX  85
VIROQUA        MOSUNNY   80  62  54 S9        30.00S HX  81
BOSCOBEL       MOSUNNY   83  63  50 SW9       29.99R HX  84
PRAIRIE DU CHI CLOUDY    81  62  53 S7        29.98R HX  82
PLATTEVILLE    PTSUNNY   82  65  56 S13       30.01S HX  83
$$

WIZ056-057-062-063-064-067-068-052200-
SOUTH CENTRAL WISCONSIN

CITY           SKY/WX    TMP DP  RH WIND       PRES   REMARKS
REEDSBURG      MOSUNNY   82  64  54 S12       29.99S HX  84
BARABOO/DELLS  MOSUNNY   82  60  46 SW12      30.00S HX  82
LONE ROCK      NOT AVBL
MINERAL POINT  MOSUNNY   82  63  51 S9        30.01F HX  83
MADISON        MOSUNNY   82  62  50 S13       30.01F HX  83
MIDDLETON      MOSUNNY   83  60  46 SW8       30.02S HX  83
WATERTOWN      MOSUNNY   81  64  55 S8        30.02F HX  82
MONROE         SUNNY     81  63  54 S8G17     30.03F HX  82
JANESVILLE     MOSUNNY   82  61  47 SW13      30.02F HX  83
$$

WIZ051-052-058>065-066-070>072-052200-
SOUTHEAST WISCONSIN

CITY           SKY/WX    TMP DP  RH WIND       PRES   REMARKS
MILWAUKEE      MOSUNNY   78  60  53 SE16      30.04S
WAUKESHA       NOT AVBL
MILWAUKEE/TIMM NOT AVBL
RACINE         SUNNY     77  59  53 S10       30.06F
BURLINGTON     SUNNY     80  61  52 SW9       30.04S HX  81
KENOSHA        SUNNY     79  61  53 SE14      30.05S HX  80
FOND DU LAC    SUNNY     82  62  50 S10       30.01F HX  83
SHEBOYGAN      SUNNY     76  62  62 SE12      30.03F
WEST BEND      SUNNY     81  59  47 S6        30.03F HX  81
JUNEAU         SUNNY     80  62  53 S12       30.04S HX  81
$$

LSZ147-162-052200-
LAKE SUPERIOR

STATION/POSITION TIME  TEMP    WIND        PRES    WAVE
                       AIR SEA DIR/SP/G            HT/PER
                 (UTC) (F)     (DEG/KT/KT) (MB)    (FT/S)
W MID LAKE BUOY  1950   48 40  110/  8/  8 1012.3F   0
DEVILS ISLAND    2000           10/  8/  9 1011.2F
SAXON HARBOR     2000   83     200/ 12/ 17 1011.5F
$$

LMZ867-665-643>646-052200-
LAKE MICHIGAN

STATION/POSITION TIME  TEMP    WIND        PRES    WAVE
                       AIR SEA DIR/SP/G            HT/PER
                 (UTC) (F)     (DEG/KT/KT) (MB)    (FT/S)
CHAMBERS ISLAND  2000   78     160/  4/ 13 1015.9F
S GREEN BAY BUOY 1900   74 71  210/  8/  8 1017.7F
N MID LAKE BUOY  1950   54 49  190/ 10/ 12 1017.0F   2/ 4
NORTHPORT PIER   2000   69     150/  7/ 13 1016.3F
SISTER BAY       2014   76     180/ 18/ 21   N/A
ALGOMA LAKESHORE 2041          210/ 11/ 13   N/A
KEWAUNEE LAKESHO 2000   64     180/ 12/ 14 1016.4F
SHEBOYGAN LAKESH 2000   63     170/ 11/ 11 1017.5F
PORT WASHINGTON  2000   72     170/  3/  4 1017.9F
ATWATER BUOY     2000   65 62  140/ 10/ 12 1018.5F
MILWAUKEE LAKESH 2000   65     140/ 12/ 14   N/A
KENOSHA   LAKESH 2000   69     170/  9/ 11 1017.3F
$$

TC  - TEMPERATURE IN CELSIUS
VSB - VISIBILITY IN STATUTE MILES
WCI - WIND CHILL INDEX
HX  - HEAT INDEX



USA.gov is the U.S. government's official web portal to all federal, state and local government web resources and services.